Year,Month,Day,Hour,Minute,Value (Times are PST for temperature in C)
2019,03,27,00,00,5.30
2019,03,27,00,01,5.30
2019,03,27,00,02,5.40
2019,03,27,00,03,5.40
2019,03,27,00,04,5.50
2019,03,27,00,05,5.50
2019,03,27,00,06,5.60
2019,03,27,00,07,5.70
2019,03,27,00,08,5.70
2019,03,27,00,09,5.80
2019,03,27,00,10,5.80
2019,03,27,00,11,5.90
2019,03,27,00,12,5.90
2019,03,27,00,13,5.90
2019,03,27,00,14,5.90
2019,03,27,00,15,5.90
2019,03,27,00,16,6.00
2019,03,27,00,17,6.00
2019,03,27,00,18,6.00
2019,03,27,00,19,6.10
2019,03,27,00,20,6.10
2019,03,27,00,21,6.10
2019,03,27,00,22,6.20
2019,03,27,00,23,6.20
2019,03,27,00,24,6.20
2019,03,27,00,25,6.20
2019,03,27,00,26,6.30
2019,03,27,00,27,6.30
2019,03,27,00,28,6.30
2019,03,27,00,29,6.30
2019,03,27,00,30,6.30
2019,03,27,00,31,6.30
2019,03,27,00,32,6.40
2019,03,27,00,33,6.40
2019,03,27,00,34,6.40
2019,03,27,00,35,6.30
2019,03,27,00,36,6.30
2019,03,27,00,37,6.30
2019,03,27,00,38,6.30
2019,03,27,00,39,6.30
2019,03,27,00,40,6.30
2019,03,27,00,41,6.30
2019,03,27,00,42,6.30
2019,03,27,00,43,6.30
2019,03,27,00,44,6.30
2019,03,27,00,45,6.30
2019,03,27,00,46,6.30
2019,03,27,00,47,6.30
2019,03,27,00,48,6.30
2019,03,27,00,49,6.30
2019,03,27,00,50,6.30
2019,03,27,00,51,6.30
2019,03,27,00,52,6.30
2019,03,27,00,53,6.30
2019,03,27,00,54,6.30
2019,03,27,00,55,6.30
2019,03,27,00,56,6.30
2019,03,27,00,57,6.30
2019,03,27,00,58,6.30
2019,03,27,00,59,6.30
2019,03,27,01,00,6.30
2019,03,27,01,01,6.30
2019,03,27,01,02,6.30
2019,03,27,01,03,6.30
2019,03,27,01,04,6.30
2019,03,27,01,05,6.30
2019,03,27,01,06,6.30
2019,03,27,01,07,6.30
2019,03,27,01,08,6.30
2019,03,27,01,09,6.30
2019,03,27,01,10,6.30
2019,03,27,01,11,6.20
2019,03,27,01,12,6.20
2019,03,27,01,13,6.20
2019,03,27,01,14,6.20
2019,03,27,01,15,6.20
2019,03,27,01,16,6.20
2019,03,27,01,17,6.20
2019,03,27,01,18,6.20
2019,03,27,01,19,6.20
2019,03,27,01,20,6.20
2019,03,27,01,21,6.20
2019,03,27,01,22,6.20
2019,03,27,01,23,6.20
2019,03,27,01,24,6.20
2019,03,27,01,25,6.20
2019,03,27,01,26,6.20
2019,03,27,01,27,6.20
2019,03,27,01,28,6.20
2019,03,27,01,29,6.20
2019,03,27,01,30,6.20
2019,03,27,01,31,6.20
2019,03,27,01,32,6.20
2019,03,27,01,33,6.20
2019,03,27,01,34,6.20
2019,03,27,01,35,6.20
2019,03,27,01,36,6.20
2019,03,27,01,37,6.20
2019,03,27,01,38,6.20
2019,03,27,01,39,6.20
2019,03,27,01,40,6.20
2019,03,27,01,41,6.20
2019,03,27,01,42,6.20
2019,03,27,01,43,6.10
2019,03,27,01,44,6.10
2019,03,27,01,45,6.10
2019,03,27,01,46,6.10
2019,03,27,01,47,6.10
2019,03,27,01,48,6.10
2019,03,27,01,49,6.10
2019,03,27,01,50,6.10
2019,03,27,01,51,6.10
2019,03,27,01,52,6.10
2019,03,27,01,53,6.10
2019,03,27,01,54,6.10
2019,03,27,01,55,6.00
2019,03,27,01,56,6.00
2019,03,27,01,57,6.00
2019,03,27,01,58,6.00
2019,03,27,01,59,6.00
2019,03,27,02,00,6.00
2019,03,27,02,01,6.00
2019,03,27,02,02,6.00
2019,03,27,02,03,6.10
2019,03,27,02,04,6.10
2019,03,27,02,05,6.10
2019,03,27,02,06,6.10
2019,03,27,02,07,6.10
2019,03,27,02,08,6.10
2019,03,27,02,09,6.10
2019,03,27,02,10,6.10
2019,03,27,02,11,6.20
2019,03,27,02,12,6.20
2019,03,27,02,13,6.20
2019,03,27,02,14,6.20
2019,03,27,02,15,6.20
2019,03,27,02,16,6.30
2019,03,27,02,17,6.30
2019,03,27,02,18,6.30
2019,03,27,02,19,6.30
2019,03,27,02,20,6.30
2019,03,27,02,21,6.20
2019,03,27,02,22,6.20
2019,03,27,02,23,6.20
2019,03,27,02,24,6.20
2019,03,27,02,25,6.20
2019,03,27,02,26,6.20
2019,03,27,02,27,6.20
2019,03,27,02,28,6.20
2019,03,27,02,29,6.20
2019,03,27,02,30,6.20
2019,03,27,02,31,6.20
2019,03,27,02,32,6.20
2019,03,27,02,33,6.20
2019,03,27,02,34,6.20
2019,03,27,02,35,6.20
2019,03,27,02,36,6.10
2019,03,27,02,37,6.10
2019,03,27,02,38,6.10
2019,03,27,02,39,6.10
2019,03,27,02,40,6.20
2019,03,27,02,41,6.20
2019,03,27,02,42,6.20
2019,03,27,02,43,6.20
2019,03,27,02,44,6.20
2019,03,27,02,45,6.20
2019,03,27,02,46,6.20
2019,03,27,02,47,6.20
2019,03,27,02,48,6.20
2019,03,27,02,49,6.20
2019,03,27,02,50,6.10
2019,03,27,02,51,6.10
2019,03,27,02,52,6.10
2019,03,27,02,53,6.10
2019,03,27,02,54,6.10
2019,03,27,02,55,6.10
2019,03,27,02,56,6.10
2019,03,27,02,57,6.10
2019,03,27,02,58,6.00
2019,03,27,02,59,6.10
2019,03,27,03,00,6.10
2019,03,27,03,01,6.10
2019,03,27,03,02,6.10
2019,03,27,03,03,6.10
2019,03,27,03,04,6.10
2019,03,27,03,05,6.10
2019,03,27,03,06,6.10
2019,03,27,03,07,6.10
2019,03,27,03,08,6.10
2019,03,27,03,09,6.10
2019,03,27,03,10,6.10
2019,03,27,03,11,6.10
2019,03,27,03,12,6.10
2019,03,27,03,13,6.10
2019,03,27,03,14,6.10
2019,03,27,03,15,6.20
2019,03,27,03,16,6.20
2019,03,27,03,17,6.20
2019,03,27,03,18,6.20
2019,03,27,03,19,6.20
2019,03,27,03,20,6.20
2019,03,27,03,21,6.20
2019,03,27,03,22,6.20
2019,03,27,03,23,6.20
2019,03,27,03,24,6.20
2019,03,27,03,25,6.20
2019,03,27,03,26,6.20
2019,03,27,03,27,6.20
2019,03,27,03,28,6.20
2019,03,27,03,29,6.20
2019,03,27,03,30,6.10
2019,03,27,03,31,6.10
2019,03,27,03,32,6.10
2019,03,27,03,33,6.10
2019,03,27,03,34,6.00
2019,03,27,03,35,6.00
2019,03,27,03,36,6.00
2019,03,27,03,37,6.00
2019,03,27,03,38,5.90
2019,03,27,03,39,5.90
2019,03,27,03,40,5.90
2019,03,27,03,41,5.90
2019,03,27,03,42,5.80
2019,03,27,03,43,5.80
2019,03,27,03,44,5.80
2019,03,27,03,45,5.80
2019,03,27,03,46,5.70
2019,03,27,03,47,5.70
2019,03,27,03,48,5.70
2019,03,27,03,49,5.70
2019,03,27,03,50,5.70
2019,03,27,03,51,5.70
2019,03,27,03,52,5.70
2019,03,27,03,53,5.70
2019,03,27,03,54,5.70
2019,03,27,03,55,5.70
2019,03,27,03,56,5.70
2019,03,27,03,57,5.70
2019,03,27,03,58,5.70
2019,03,27,03,59,5.70
2019,03,27,04,00,5.70
2019,03,27,04,01,5.70
2019,03,27,04,02,5.70
2019,03,27,04,03,5.80
2019,03,27,04,04,5.80
2019,03,27,04,05,5.80
2019,03,27,04,06,5.90
2019,03,27,04,07,5.90
2019,03,27,04,08,5.90
2019,03,27,04,09,5.90
2019,03,27,04,10,5.90
2019,03,27,04,11,5.90
2019,03,27,04,12,5.90
2019,03,27,04,13,5.90
2019,03,27,04,14,6.00
2019,03,27,04,15,6.00
2019,03,27,04,16,6.00
2019,03,27,04,17,6.00
2019,03,27,04,18,6.00
2019,03,27,04,19,6.00
2019,03,27,04,20,6.00
2019,03,27,04,21,6.10
2019,03,27,04,22,6.10
2019,03,27,04,23,6.10
2019,03,27,04,24,6.10
2019,03,27,04,25,6.20
2019,03,27,04,26,6.20
2019,03,27,04,27,6.20
2019,03,27,04,28,6.20
2019,03,27,04,29,6.20
2019,03,27,04,30,6.20
2019,03,27,04,31,6.30
2019,03,27,04,32,6.30
2019,03,27,04,33,6.30
2019,03,27,04,34,6.30
2019,03,27,04,35,6.30
2019,03,27,04,36,6.30
2019,03,27,04,37,6.30
2019,03,27,04,38,6.30
2019,03,27,04,39,6.30
2019,03,27,04,40,6.30
2019,03,27,04,41,6.30
2019,03,27,04,42,6.30
2019,03,27,04,43,6.40
2019,03,27,04,44,6.40
2019,03,27,04,45,6.40
2019,03,27,04,46,6.40
2019,03,27,04,47,6.40
2019,03,27,04,48,6.40
2019,03,27,04,49,6.40
2019,03,27,04,50,6.40
2019,03,27,04,51,6.50
2019,03,27,04,52,6.50
2019,03,27,04,53,6.50
2019,03,27,04,54,6.50
2019,03,27,04,55,6.50
2019,03,27,04,56,6.50
2019,03,27,04,57,6.50
2019,03,27,04,58,6.50
2019,03,27,04,59,6.50
2019,03,27,05,00,6.50
2019,03,27,05,01,6.50
2019,03,27,05,02,6.50
2019,03,27,05,03,6.50
2019,03,27,05,04,6.40
2019,03,27,05,05,6.40
2019,03,27,05,06,6.40
2019,03,27,05,07,6.40
2019,03,27,05,08,6.40
2019,03,27,05,09,6.40
2019,03,27,05,10,6.40
2019,03,27,05,11,6.40
2019,03,27,05,12,6.40
2019,03,27,05,13,6.40
2019,03,27,05,14,6.40
2019,03,27,05,15,6.40
2019,03,27,05,16,6.30
2019,03,27,05,17,6.30
2019,03,27,05,18,6.30
2019,03,27,05,19,6.30
2019,03,27,05,20,6.30
2019,03,27,05,21,6.30
2019,03,27,05,22,6.30
2019,03,27,05,23,6.30
2019,03,27,05,24,6.30
2019,03,27,05,25,6.30
2019,03,27,05,26,6.30
2019,03,27,05,27,6.30
2019,03,27,05,28,6.30
2019,03,27,05,29,6.30
2019,03,27,05,30,6.30
2019,03,27,05,31,6.20
2019,03,27,05,32,6.20
2019,03,27,05,33,6.20
2019,03,27,05,34,6.20
2019,03,27,05,35,6.20
2019,03,27,05,36,6.20
2019,03,27,05,37,6.20
2019,03,27,05,38,6.20
2019,03,27,05,39,6.20
2019,03,27,05,40,6.20
2019,03,27,05,41,6.20
2019,03,27,05,42,6.20
2019,03,27,05,43,6.20
2019,03,27,05,44,6.20
2019,03,27,05,45,6.20
2019,03,27,05,46,6.20
2019,03,27,05,47,6.20
2019,03,27,05,48,6.20
2019,03,27,05,49,6.20
2019,03,27,05,50,6.20
2019,03,27,05,51,6.10
2019,03,27,05,52,6.10
2019,03,27,05,53,6.10
2019,03,27,05,54,6.10
2019,03,27,05,55,6.10
2019,03,27,05,56,6.10
2019,03,27,05,57,6.10
2019,03,27,05,58,6.10
2019,03,27,05,59,6.10
2019,03,27,06,00,6.10
2019,03,27,06,01,6.10
2019,03,27,06,02,6.10
2019,03,27,06,03,6.10
2019,03,27,06,04,6.10
2019,03,27,06,05,6.10
2019,03,27,06,06,6.10
2019,03,27,06,07,6.10
2019,03,27,06,08,6.10
2019,03,27,06,09,6.10
2019,03,27,06,10,6.10
2019,03,27,06,11,6.10
2019,03,27,06,12,6.10
2019,03,27,06,13,6.20
2019,03,27,06,14,6.20
2019,03,27,06,15,6.20
2019,03,27,06,16,6.20
2019,03,27,06,17,6.20
2019,03,27,06,18,6.20
2019,03,27,06,19,6.20
2019,03,27,06,20,6.20
2019,03,27,06,21,6.10
2019,03,27,06,22,6.10
2019,03,27,06,23,6.10
2019,03,27,06,24,6.10
2019,03,27,06,25,6.10
2019,03,27,06,26,6.00
2019,03,27,06,27,6.00
2019,03,27,06,28,5.90
2019,03,27,06,29,5.90
2019,03,27,06,30,5.90
2019,03,27,06,31,5.90
2019,03,27,06,32,5.80
2019,03,27,06,33,5.80
2019,03,27,06,34,5.80
2019,03,27,06,35,5.80
2019,03,27,06,36,5.80
2019,03,27,06,37,5.80
2019,03,27,06,38,5.80
2019,03,27,06,39,5.70
2019,03,27,06,40,5.70
2019,03,27,06,41,5.70
2019,03,27,06,42,5.70
2019,03,27,06,43,5.70
2019,03,27,06,44,5.70
2019,03,27,06,45,5.70
2019,03,27,06,46,5.70
2019,03,27,06,47,5.70
2019,03,27,06,48,5.80
2019,03,27,06,49,5.80
2019,03,27,06,50,5.80
2019,03,27,06,51,5.80
2019,03,27,06,52,5.80
2019,03,27,06,53,5.80
2019,03,27,06,54,5.80
2019,03,27,06,55,5.80
2019,03,27,06,56,5.80
2019,03,27,06,57,5.80
2019,03,27,06,58,5.80
2019,03,27,06,59,5.80
2019,03,27,07,00,5.80
2019,03,27,07,01,5.80
2019,03,27,07,02,5.80
2019,03,27,07,03,5.80
2019,03,27,07,04,5.80
2019,03,27,07,05,5.90
2019,03,27,07,06,5.90
2019,03,27,07,07,5.90
2019,03,27,07,08,5.90
2019,03,27,07,09,5.90
2019,03,27,07,10,5.90
2019,03,27,07,11,5.90
2019,03,27,07,12,5.90
2019,03,27,07,13,5.90
2019,03,27,07,14,5.90
2019,03,27,07,15,5.90
2019,03,27,07,16,5.90
2019,03,27,07,17,5.90
2019,03,27,07,18,5.90
2019,03,27,07,19,5.80
2019,03,27,07,20,5.80
2019,03,27,07,21,5.80
2019,03,27,07,22,5.70
2019,03,27,07,23,5.70
2019,03,27,07,24,5.70
2019,03,27,07,25,5.70
2019,03,27,07,26,5.60
2019,03,27,07,27,5.60
2019,03,27,07,28,5.50
2019,03,27,07,29,5.40
2019,03,27,07,30,5.30
2019,03,27,07,31,5.20
2019,03,27,07,32,5.10
2019,03,27,07,33,5.10
2019,03,27,07,34,5.10
2019,03,27,07,35,5.10
2019,03,27,07,36,5.10
2019,03,27,07,37,5.20
2019,03,27,07,38,5.20
2019,03,27,07,39,5.20
2019,03,27,07,40,5.20
2019,03,27,07,41,5.20
2019,03,27,07,42,5.20
2019,03,27,07,43,5.20
2019,03,27,07,44,5.20
2019,03,27,07,45,5.30
2019,03,27,07,46,5.30
2019,03,27,07,47,5.30
2019,03,27,07,48,5.30
2019,03,27,07,49,5.30
2019,03,27,07,50,5.40
2019,03,27,07,51,5.40
2019,03,27,07,52,5.40
2019,03,27,07,53,5.40
2019,03,27,07,54,5.40
2019,03,27,07,55,5.40
2019,03,27,07,56,5.40
2019,03,27,07,57,5.40
2019,03,27,07,58,5.40
2019,03,27,07,59,5.40
2019,03,27,08,00,5.40
2019,03,27,08,01,5.40
2019,03,27,08,02,5.40
2019,03,27,08,03,5.40
2019,03,27,08,04,5.50
2019,03,27,08,05,5.50
2019,03,27,08,06,5.50
2019,03,27,08,07,5.50
2019,03,27,08,08,5.60
2019,03,27,08,09,5.60
2019,03,27,08,10,5.60
2019,03,27,08,11,5.60
2019,03,27,08,12,5.60
2019,03,27,08,13,5.70
2019,03,27,08,14,5.70
2019,03,27,08,15,5.70
2019,03,27,08,16,5.80
2019,03,27,08,17,5.80
2019,03,27,08,18,5.80
2019,03,27,08,19,5.80
2019,03,27,08,20,5.80
2019,03,27,08,21,5.90
2019,03,27,08,22,5.90
2019,03,27,08,23,5.90
2019,03,27,08,24,5.90
2019,03,27,08,25,5.90
2019,03,27,08,26,5.90
2019,03,27,08,27,6.00
2019,03,27,08,28,6.00
2019,03,27,08,29,6.00
2019,03,27,08,30,6.10
2019,03,27,08,31,6.10
2019,03,27,08,32,6.10
2019,03,27,08,33,6.20
2019,03,27,08,34,6.20
2019,03,27,08,35,6.20
2019,03,27,08,36,6.20
2019,03,27,08,37,6.30
2019,03,27,08,38,6.30
2019,03,27,08,39,6.30
2019,03,27,08,40,6.40
2019,03,27,08,41,6.40
2019,03,27,08,42,6.40
2019,03,27,08,43,6.40
2019,03,27,08,44,6.40
2019,03,27,08,45,6.50
2019,03,27,08,46,6.50
2019,03,27,08,47,6.50
2019,03,27,08,48,6.50
2019,03,27,08,49,6.60
2019,03,27,08,50,6.60
2019,03,27,08,51,6.60
2019,03,27,08,52,6.70
2019,03,27,08,53,6.70
2019,03,27,08,54,6.70
2019,03,27,08,55,6.70
2019,03,27,08,56,6.80
2019,03,27,08,57,6.80
2019,03,27,08,58,6.80
2019,03,27,08,59,6.90
2019,03,27,09,00,6.90
2019,03,27,09,01,6.90
2019,03,27,09,02,6.90
2019,03,27,09,03,7.00
2019,03,27,09,04,7.00
2019,03,27,09,05,7.10
2019,03,27,09,06,7.10
2019,03,27,09,07,7.10
2019,03,27,09,08,7.10
2019,03,27,09,09,7.20
2019,03,27,09,10,7.20
2019,03,27,09,11,7.20
2019,03,27,09,12,7.30
2019,03,27,09,13,7.30
2019,03,27,09,14,7.30
2019,03,27,09,15,7.40
2019,03,27,09,16,7.40
2019,03,27,09,17,7.40
2019,03,27,09,18,7.50
2019,03,27,09,19,7.50
2019,03,27,09,20,7.60
2019,03,27,09,21,7.70
2019,03,27,09,22,7.70
2019,03,27,09,23,7.70
2019,03,27,09,24,7.70
2019,03,27,09,25,7.80
2019,03,27,09,26,7.80
2019,03,27,09,27,7.80
2019,03,27,09,28,7.90
2019,03,27,09,29,7.90
2019,03,27,09,30,8.00
2019,03,27,09,31,8.00
2019,03,27,09,32,8.10
2019,03,27,09,33,8.20
2019,03,27,09,34,8.20
2019,03,27,09,35,8.20
2019,03,27,09,36,8.30
2019,03,27,09,37,8.30
2019,03,27,09,38,8.40
2019,03,27,09,39,8.40
2019,03,27,09,40,8.50
2019,03,27,09,41,8.60
2019,03,27,09,42,8.60
2019,03,27,09,43,8.60
2019,03,27,09,44,8.70
2019,03,27,09,45,8.70
2019,03,27,09,46,8.80
2019,03,27,09,47,8.80
2019,03,27,09,48,8.80
2019,03,27,09,49,8.90
2019,03,27,09,50,9.00
2019,03,27,09,51,9.00
2019,03,27,09,52,9.10
2019,03,27,09,53,9.10
2019,03,27,09,54,9.20
2019,03,27,09,55,9.20
2019,03,27,09,56,9.20
2019,03,27,09,57,9.30
2019,03,27,09,58,9.30
2019,03,27,09,59,9.30
2019,03,27,10,00,9.40
2019,03,27,10,01,9.40
2019,03,27,10,02,9.40
2019,03,27,10,03,9.50
2019,03,27,10,04,9.60
2019,03,27,10,05,9.60
2019,03,27,10,06,9.60
2019,03,27,10,07,9.60
2019,03,27,10,08,9.70
2019,03,27,10,09,9.70
2019,03,27,10,10,9.70
2019,03,27,10,11,9.60
2019,03,27,10,12,9.60
2019,03,27,10,13,9.60
2019,03,27,10,14,9.70
2019,03,27,10,15,9.70
2019,03,27,10,16,9.70
2019,03,27,10,17,9.80
2019,03,27,10,18,9.80
2019,03,27,10,19,9.80
2019,03,27,10,20,9.90
2019,03,27,10,21,9.80
2019,03,27,10,22,9.90
2019,03,27,10,23,9.90
2019,03,27,10,24,9.90
2019,03,27,10,25,9.90
2019,03,27,10,26,9.90
2019,03,27,10,27,9.90
2019,03,27,10,28,9.90
2019,03,27,10,29,10.00
2019,03,27,10,30,10.00
2019,03,27,10,31,10.10
2019,03,27,10,32,10.10
2019,03,27,10,33,10.00
2019,03,27,10,34,9.90
2019,03,27,10,35,10.00
2019,03,27,10,36,10.00
2019,03,27,10,37,10.10
2019,03,27,10,38,10.10
2019,03,27,10,39,10.00
2019,03,27,10,40,10.00
2019,03,27,10,41,10.10
2019,03,27,10,42,10.00
2019,03,27,10,43,9.90
2019,03,27,10,44,9.90
2019,03,27,10,45,10.00
2019,03,27,10,46,10.10
2019,03,27,10,47,10.00
2019,03,27,10,48,10.00
2019,03,27,10,49,10.10
2019,03,27,10,50,10.10
2019,03,27,10,51,10.10
2019,03,27,10,52,10.20
2019,03,27,10,53,10.20
2019,03,27,10,54,10.20
2019,03,27,10,55,10.30
2019,03,27,10,56,10.30
2019,03,27,10,57,10.30
2019,03,27,10,58,10.30
2019,03,27,10,59,10.30
2019,03,27,11,00,10.30
2019,03,27,11,01,10.40
2019,03,27,11,02,10.50
2019,03,27,11,03,10.50
2019,03,27,11,04,10.60
2019,03,27,11,05,10.60
2019,03,27,11,06,10.60
2019,03,27,11,07,10.60
2019,03,27,11,08,10.60
2019,03,27,11,09,10.70
2019,03,27,11,10,10.70
2019,03,27,11,11,10.70
2019,03,27,11,12,10.70
2019,03,27,11,13,10.60
2019,03,27,11,14,10.60
2019,03,27,11,15,10.70
2019,03,27,11,16,10.70
2019,03,27,11,17,10.70
2019,03,27,11,18,10.70
2019,03,27,11,19,10.80
2019,03,27,11,20,10.80
2019,03,27,11,21,10.90
2019,03,27,11,22,10.90
2019,03,27,11,23,10.90
2019,03,27,11,24,10.90
2019,03,27,11,25,11.00
2019,03,27,11,26,11.00
2019,03,27,11,27,10.90
2019,03,27,11,28,10.90
2019,03,27,11,29,11.00
2019,03,27,11,30,11.00
2019,03,27,11,31,11.10
2019,03,27,11,32,11.10
2019,03,27,11,33,11.20
2019,03,27,11,34,11.20
2019,03,27,11,35,11.30
2019,03,27,11,36,11.30
2019,03,27,11,37,11.30
2019,03,27,11,38,11.30
2019,03,27,11,39,11.20
2019,03,27,11,40,11.20
2019,03,27,11,41,11.20
2019,03,27,11,42,11.20
2019,03,27,11,43,11.20
2019,03,27,11,44,11.20
2019,03,27,11,45,11.20
2019,03,27,11,46,11.20
2019,03,27,11,47,11.20
2019,03,27,11,48,11.20
2019,03,27,11,49,11.30
2019,03,27,11,50,11.30
2019,03,27,11,51,11.40
2019,03,27,11,52,11.40
2019,03,27,11,53,11.40
2019,03,27,11,54,11.40
2019,03,27,11,55,11.40
2019,03,27,11,56,11.50
2019,03,27,11,57,11.50
2019,03,27,11,58,11.50
2019,03,27,11,59,11.50
2019,03,27,12,00,11.40
2019,03,27,12,01,11.40
2019,03,27,12,02,11.40
2019,03,27,12,03,11.30
2019,03,27,12,04,11.30
2019,03,27,12,05,11.30
2019,03,27,12,06,11.30
2019,03,27,12,07,11.30
2019,03,27,12,08,11.30
2019,03,27,12,09,11.30
2019,03,27,12,10,11.30
2019,03,27,12,11,11.30
2019,03,27,12,12,11.30
2019,03,27,12,13,11.30
2019,03,27,12,14,11.30
2019,03,27,12,15,11.30
2019,03,27,12,16,11.40
2019,03,27,12,17,11.40
2019,03,27,12,18,11.50
2019,03,27,12,19,11.50
2019,03,27,12,20,11.50
2019,03,27,12,21,11.60
2019,03,27,12,22,11.60
2019,03,27,12,23,11.70
2019,03,27,12,24,11.70
2019,03,27,12,25,11.80
2019,03,27,12,26,11.80
2019,03,27,12,27,11.90
2019,03,27,12,28,11.90
2019,03,27,12,29,12.00
2019,03,27,12,30,12.00
2019,03,27,12,31,12.10
2019,03,27,12,32,12.00
2019,03,27,12,33,11.90
2019,03,27,12,34,11.90
2019,03,27,12,35,11.90
2019,03,27,12,36,12.00
2019,03,27,12,37,12.00
2019,03,27,12,38,12.00
2019,03,27,12,39,11.90
2019,03,27,12,40,11.90
2019,03,27,12,41,11.90
2019,03,27,12,42,11.90
2019,03,27,12,43,12.00
2019,03,27,12,44,12.00
2019,03,27,12,45,12.10
2019,03,27,12,46,12.10
2019,03,27,12,47,12.10
2019,03,27,12,48,12.20
2019,03,27,12,49,12.20
2019,03,27,12,50,12.20
2019,03,27,12,51,12.20
2019,03,27,12,52,12.20
2019,03,27,12,53,12.30
2019,03,27,12,54,12.30
2019,03,27,12,55,12.30
2019,03,27,12,56,12.40
2019,03,27,12,57,12.50
2019,03,27,12,58,12.50
2019,03,27,12,59,12.50
2019,03,27,13,00,12.40
2019,03,27,13,01,12.40
2019,03,27,13,02,12.40
2019,03,27,13,03,12.40
2019,03,27,13,04,12.40
2019,03,27,13,05,12.40
2019,03,27,13,06,12.40
2019,03,27,13,07,12.40
2019,03,27,13,08,12.30
2019,03,27,13,09,12.30
2019,03,27,13,10,12.30
2019,03,27,13,11,12.30
2019,03,27,13,12,12.30
2019,03,27,13,13,12.40
2019,03,27,13,14,12.40
2019,03,27,13,15,12.40
2019,03,27,13,16,12.40
2019,03,27,13,17,12.40
2019,03,27,13,18,12.40
2019,03,27,13,19,12.40
2019,03,27,13,20,12.40
2019,03,27,13,21,12.50
2019,03,27,13,22,12.60
2019,03,27,13,23,12.70
2019,03,27,13,24,12.70
2019,03,27,13,25,12.70
2019,03,27,13,26,12.70
2019,03,27,13,27,12.80
2019,03,27,13,28,12.80
2019,03,27,13,29,12.90
2019,03,27,13,30,12.90
2019,03,27,13,31,12.90
2019,03,27,13,32,12.90
2019,03,27,13,33,12.90
2019,03,27,13,34,12.90
2019,03,27,13,35,12.90
2019,03,27,13,36,12.90
2019,03,27,13,37,12.90
2019,03,27,13,38,12.90
2019,03,27,13,39,13.00
2019,03,27,13,40,13.10
2019,03,27,13,41,13.10
2019,03,27,13,42,13.10
2019,03,27,13,43,13.10
2019,03,27,13,44,13.10
2019,03,27,13,45,13.10
2019,03,27,13,46,13.10
2019,03,27,13,47,13.10
2019,03,27,13,48,13.10
2019,03,27,13,49,13.10
2019,03,27,13,50,13.10
2019,03,27,13,51,13.20
2019,03,27,13,52,13.30
2019,03,27,13,53,13.30
2019,03,27,13,54,13.30
2019,03,27,13,55,13.30
2019,03,27,13,56,13.30
2019,03,27,13,57,13.30
2019,03,27,13,58,13.30
2019,03,27,13,59,13.30
2019,03,27,14,00,13.30
2019,03,27,14,01,13.30
2019,03,27,14,02,13.40
2019,03,27,14,03,13.40
2019,03,27,14,04,13.50
2019,03,27,14,05,13.50
2019,03,27,14,06,13.50
2019,03,27,14,07,13.60
2019,03,27,14,08,13.60
2019,03,27,14,09,13.70
2019,03,27,14,10,13.70
2019,03,27,14,11,13.80
2019,03,27,14,12,13.80
2019,03,27,14,13,13.80
2019,03,27,14,14,13.80
2019,03,27,14,15,13.80
2019,03,27,14,16,13.80
2019,03,27,14,17,13.80
2019,03,27,14,18,13.80
2019,03,27,14,19,13.80
2019,03,27,14,20,13.90
2019,03,27,14,21,13.90
2019,03,27,14,22,13.90
2019,03,27,14,23,13.90
2019,03,27,14,24,13.90
2019,03,27,14,25,13.90
2019,03,27,14,26,13.90
2019,03,27,14,27,13.90
2019,03,27,14,28,14.00
2019,03,27,14,29,14.00
2019,03,27,14,30,14.00
2019,03,27,14,31,14.10
2019,03,27,14,32,14.10
2019,03,27,14,33,14.10
2019,03,27,14,34,14.10
2019,03,27,14,35,14.20
2019,03,27,14,36,14.20
2019,03,27,14,37,14.20
2019,03,27,14,38,14.10
2019,03,27,14,39,14.10
2019,03,27,14,40,14.10
2019,03,27,14,41,14.20
2019,03,27,14,42,14.20
2019,03,27,14,43,14.20
2019,03,27,14,44,14.20
2019,03,27,14,45,14.20
2019,03,27,14,46,14.20
2019,03,27,14,47,14.20
2019,03,27,14,48,14.20
2019,03,27,14,49,14.20
2019,03,27,14,50,14.20
2019,03,27,14,51,14.20
2019,03,27,14,52,14.20
2019,03,27,14,53,14.20
2019,03,27,14,54,14.20
2019,03,27,14,55,14.20
2019,03,27,14,56,14.20
2019,03,27,14,57,14.20
2019,03,27,14,58,14.20
2019,03,27,14,59,14.20
2019,03,27,15,00,14.20
2019,03,27,15,01,14.30
2019,03,27,15,02,14.30
2019,03,27,15,03,14.40
2019,03,27,15,04,14.40
2019,03,27,15,05,14.40
2019,03,27,15,06,14.40
2019,03,27,15,07,14.50
2019,03,27,15,08,14.60
2019,03,27,15,09,14.70
2019,03,27,15,10,14.70
2019,03,27,15,11,14.70
2019,03,27,15,12,14.80
2019,03,27,15,13,14.80
2019,03,27,15,14,14.80
2019,03,27,15,15,14.80
2019,03,27,15,16,14.80
2019,03,27,15,17,14.80
2019,03,27,15,18,14.80
2019,03,27,15,19,14.70
2019,03,27,15,20,14.70
2019,03,27,15,21,14.70
2019,03,27,15,22,14.70
2019,03,27,15,23,14.70
2019,03,27,15,24,14.80
2019,03,27,15,25,14.90
2019,03,27,15,26,14.90
2019,03,27,15,27,14.90
2019,03,27,15,28,14.90
2019,03,27,15,29,14.90
2019,03,27,15,30,15.00
2019,03,27,15,31,15.00
2019,03,27,15,32,15.10
2019,03,27,15,33,15.10
2019,03,27,15,34,15.10
2019,03,27,15,35,15.20
2019,03,27,15,36,15.20
2019,03,27,15,37,15.10
2019,03,27,15,38,15.00
2019,03,27,15,39,15.00
2019,03,27,15,40,14.90
2019,03,27,15,41,14.90
2019,03,27,15,42,14.90
2019,03,27,15,43,15.00
2019,03,27,15,44,15.00
2019,03,27,15,45,15.10
2019,03,27,15,46,15.00
2019,03,27,15,47,14.90
2019,03,27,15,48,14.90
2019,03,27,15,49,14.90
2019,03,27,15,50,14.90
2019,03,27,15,51,14.90
2019,03,27,15,52,14.90
2019,03,27,15,53,14.90
2019,03,27,15,54,14.90
2019,03,27,15,55,14.90
2019,03,27,15,56,14.90
2019,03,27,15,57,14.90
2019,03,27,15,58,14.90
2019,03,27,15,59,14.80
2019,03,27,16,00,14.80
2019,03,27,16,01,14.80
2019,03,27,16,02,14.70
2019,03,27,16,03,14.70
2019,03,27,16,04,14.70
2019,03,27,16,05,14.70
2019,03,27,16,06,14.60
2019,03,27,16,07,14.60
2019,03,27,16,08,14.50
2019,03,27,16,09,14.50
2019,03,27,16,10,14.50
2019,03,27,16,11,14.60
2019,03,27,16,12,14.60
2019,03,27,16,13,14.70
2019,03,27,16,14,14.80
2019,03,27,16,15,14.80
2019,03,27,16,16,14.90
2019,03,27,16,17,14.90
2019,03,27,16,18,14.90
2019,03,27,16,19,14.90
2019,03,27,16,20,14.90
2019,03,27,16,21,14.90
2019,03,27,16,22,14.90
2019,03,27,16,23,14.90
2019,03,27,16,24,14.80
2019,03,27,16,25,14.80
2019,03,27,16,26,14.70
2019,03,27,16,27,14.70
2019,03,27,16,28,14.70
2019,03,27,16,29,14.70
2019,03,27,16,30,14.60
2019,03,27,16,31,14.60
2019,03,27,16,32,14.60
2019,03,27,16,33,14.60
2019,03,27,16,34,14.60
2019,03,27,16,35,14.60
2019,03,27,16,36,14.60
2019,03,27,16,37,14.60
2019,03,27,16,38,14.60
2019,03,27,16,39,14.60
2019,03,27,16,40,14.60
2019,03,27,16,41,14.70
2019,03,27,16,42,14.70
2019,03,27,16,43,14.70
2019,03,27,16,44,14.70
2019,03,27,16,45,14.70
2019,03,27,16,46,14.70
2019,03,27,16,47,14.70
2019,03,27,16,48,14.70
2019,03,27,16,49,14.70
2019,03,27,16,50,14.70
2019,03,27,16,51,14.70
2019,03,27,16,52,14.70
2019,03,27,16,53,14.70
2019,03,27,16,54,14.70
2019,03,27,16,55,14.70
2019,03,27,16,56,14.70
2019,03,27,16,57,14.70
2019,03,27,16,58,14.70
2019,03,27,16,59,14.70
2019,03,27,17,00,14.60
2019,03,27,17,01,14.60
2019,03,27,17,02,14.60
2019,03,27,17,03,14.60
2019,03,27,17,04,14.60
2019,03,27,17,05,14.60
2019,03,27,17,06,14.50
2019,03,27,17,07,14.50
2019,03,27,17,08,14.50
2019,03,27,17,09,14.40
2019,03,27,17,10,14.40
2019,03,27,17,11,14.40
2019,03,27,17,12,14.40
2019,03,27,17,13,14.40
2019,03,27,17,14,14.40
2019,03,27,17,15,14.40
2019,03,27,17,16,14.50
2019,03,27,17,17,14.60
2019,03,27,17,18,14.70
2019,03,27,17,19,14.70
2019,03,27,17,20,14.70
2019,03,27,17,21,14.70
2019,03,27,17,22,14.70
2019,03,27,17,23,14.70
2019,03,27,17,24,14.70
2019,03,27,17,25,14.70
2019,03,27,17,26,14.70
2019,03,27,17,27,14.60
2019,03,27,17,28,14.60
2019,03,27,17,29,14.60
2019,03,27,17,30,14.50
2019,03,27,17,31,14.50
2019,03,27,17,32,14.40
2019,03,27,17,33,14.40
2019,03,27,17,34,14.40
2019,03,27,17,35,14.40
2019,03,27,17,36,14.40
2019,03,27,17,37,14.40
2019,03,27,17,38,14.40
2019,03,27,17,39,14.40
2019,03,27,17,40,14.40
2019,03,27,17,41,14.40
2019,03,27,17,42,14.40
2019,03,27,17,43,14.40
2019,03,27,17,44,14.40
2019,03,27,17,45,14.40
2019,03,27,17,46,14.40